Location: De Greiden
(52.9496°N, 5.9137°E)
Time: 22:56:55
(UTC+00:00)

ERS-2 - Pass Details

Date: 24 January 2021
Orbit: 492 x 497 km, 98.6° (Epoch: 01 March)

Event Time Altitude Azimuth Distance (km) Brightness Sun altitude
Exits shadow 17:50:23 28° 52° (NE) 969 3.1 -15.3°
Maximum altitude 17:51:46 39° 100° (E) 751 2.5 -15.6°
Drops below altitude 10° 17:55:12 10° 171° (S) 1,685 4.8 -16.1°
Sets 17:57:21 0° 179° (S) 2,562 5.9 -16.4°
